Regional Weather Roundup
Issued by NWS

Home | Current Version | Previous Version | Graphics & Text | Print | Product List | Glossary On
Versions: 1 2 3 4 5 6 7 8 9 10 11 12 13 14 15 16 17 18 19 20 21 22 23 24 25 26 27 28 29 30 31 32 33 34 35 36 37 38 39 40 41 42 43 44 45 46 47 48 49 50
000
ASUS43 KDMX 040507
RWRIA

WEATHER ROUNDUP FOR IOWA
NATIONAL WEATHER SERVICE DES MOINES IA
1200 AM CDT FRI SEP 04 2015

NOTE: "FAIR" INDICATES FEW OR NO CLOUDS BELOW 12,000 FEET WITH NO
SIGNIFICANT WEATHER AND/OR OBSTRUCTIONS TO VISIBILITY.

* - THESE STATIONS ARE NOT NWS STATIONS...THUS NOT UNDER NWS
QUALITY CONTROL.  THEY ALSO DO NOT REPORT WEATHER SUCH
AS PRECIPITATION OR FOG.

IAZ001>003-012>014-020>022-031>034-043>046-040600-
   NORTHWEST IOWA

CITY           SKY/WX    TMP DP  RH WIND       PRES   REMARKS
CARROLL *      CLEAR     72  72 100 S5        29.88S
CHEROKEE *     MOCLDY    75  73  94 S5        29.85S
DENISON *      CLEAR     77  70  78 S14       29.85S
LE MARS *      CLEAR     75  72  88 S7        29.83S
ORANGE CITY *  CLEAR     75  72  88 SE6       29.84S
SHELDON *      CLEAR     75  72  88 SE8       29.83F
SIOUX CITY     MOCLDY    77  70  79 SE9       29.81S
SPENCER        PTCLDY    75  70  84 SE8       29.86F
STORM LAKE *   CLEAR     73  72  94 S8        29.88S
$$

IAZ055>058-069>071-079>083-090>094-040600-
   SOUTHWEST IOWA

CITY           SKY/WX    TMP DP  RH WIND       PRES   REMARKS
ATLANTIC *     CLEAR     75  70  83 S6        29.89S
AUDUBON *      CLEAR     73  70  88 S5        29.90S
CLARINDA *     CLEAR     73  70  88 S5        29.91S
COUNCIL BLFS *   N/A     75  70  83 S10       29.87S
CRESTON *      CLEAR     72  68  88 S7        29.93S
LAMONI         CLEAR     75  68  78 S7        29.93R
RED OAK *      CLEAR     75  70  83 S7        29.88F
SHENANDOAH *   CLEAR     75  70  83 S8        29.88S
$$

IAZ047>049-059>061-072>074-084-040600-
   CENTRAL IOWA

CITY           SKY/WX    TMP DP  RH WIND       PRES   REMARKS
AMES           CLEAR     73  71  93 SE6       29.91R
ANKENY *       PTCLDY    73  72  94 CALM      29.91R
CHARITON *     CLEAR     72  68  88 S6        29.92S
DES MOINES     PTCLDY    78  69  73 S8        29.90R HX  80
GRINNELL*      MOCLDY    75  70  83 E3        29.94R
KNOXVILLE *    CLEAR     73  68  83 SE5       29.91S
MARSHALLTOWN   LGT RAIN  76  73  91 SE7       29.91S
PELLA *        CLEAR     73  72  94 SE3       29.93S
PERRY *          N/A     73  70  88 SE3       29.89S
$$

IAZ004>006-015-016-023>025-035-036-040600-
   NORTH CENTRAL IOWA

CITY           SKY/WX    TMP DP  RH WIND       PRES   REMARKS
ALGONA *       CLEAR     75  72  88 SE9       29.89S
CLARION *      CLEAR     77  72  83 S12       29.90S
ESTHERVILLE    CLEAR     72  71  97 SE6       29.88S
FORT DODGE *   CLEAR     75  70  83 SE5       29.90S
MASON CITY     CLEAR     73  71  93 S6        29.92S
FOREST CITY *  CLEAR     72  72 100 SE5       29.90S
IOWA FALLS *   MOCLDY    75  72  88 SE5       29.93R
$$

IAZ007>011-017>019-026>030-037>042-050>054-066-040600-
   NORTHEAST IOWA

CITY           SKY/WX    TMP DP  RH WIND       PRES   REMARKS
CEDAR RAPIDS   PTCLDY    73  72  96 SE3       29.93R
CHARLES CITY * PTCLDY    73  73 100 SE6       29.93S
CLINTON *      CLEAR     72  68  88 E5        29.95S
DECORAH *        N/A     75  73  94 SE5       29.93S
DUBUQUE        CLEAR     75  70  84 CALM      29.95R
MONTICELLO *   CLEAR     72  70  94 CALM      29.93S
OELWEIN *        N/A     73  72  94 SE5       29.94S
WATERLOO       CLOUDY    75  72  90 CALM      29.91R THUNDER
$$

IAZ064-065-067-068-078-040600-
   EAST CENTRAL IOWA

CITY           SKY/WX    TMP DP  RH WIND       PRES   REMARKS
DAVENPORT      CLEAR     72  70  93 S3        29.93S
IOWA CITY      CLEAR     74  72  93 CALM      29.93S
MT. PLEASANT * CLEAR     73  66  78 CALM      29.93S
MUSCATINE *    CLEAR     73  70  88 CALM      29.92F
QUAD CITIES    CLEAR     78  70  76 CALM      29.92S HX  80
$$

IAZ062-063-075>077-085>089-095>099-040600-
   SOUTHEAST IOWA

CITY           SKY/WX    TMP DP  RH WIND       PRES   REMARKS
BURLINGTON     CLEAR     73  70  90 CALM      29.93S
FAIRFIELD *    CLOUDY    75  68  78 S6        29.93S
FORT MADISON * CLEAR     73  70  88 S3        29.94S
KEOKUK *       CLEAR     75  70  83 CALM      29.93S
OSKALOOSA *      N/A     72  68  88 SE3       29.93R
CENTERVILLE *  CLEAR     72  68  88 S5        29.95S
OTTUMWA        PTCLDY    73  69  87 S8        29.91S
WASHINGTON *     N/A    N/A N/A N/A MISG        N/A
$$

ABBREVIATIONS USED IN REMARKS
   TC - TEMPERATURES IN CELSIUS
  WCI - WIND CHILL INDEX
   HX - HEAT INDEX
  VSB - VISIBILITY
$$



USA.gov is the U.S. government's official web portal to all federal, state and local government web resources and services.